Location: Bacharowice
(49.9333°N, 19.5833°E)
Time: 01:11:02
(UTC+00:00)

USA 305 - Pass Details

Date: 21 September 2021
Orbit: 547 x 588 km, 54.0° (Epoch: 03 October)

Event Time Altitude Azimuth Distance (km) Brightness Sun altitude
Rises 20:27:37 0° 295° (WNW) 2,762 7.3 -32.9°
Reaches altitude 10° 20:29:52 10° 294° (WNW) 1,870 6.2 -33.1°
Enters shadow 20:30:58 18° 293° (WNW) 1,439 5.5 -33.2°
